Theta_e
323 322 321 319 318 318 318 319 320 320 319 317 316 313 310 312 314 316 317 315 313 311 310 311 311 311 311 310 310 311 312 313 312 312 311 311 311 310 308 308 307 306 308 309 308 308 307 305 305 305 306 307 308 308 307 308 307 307 307 306 304 304 303 303 305 305 305 303 299 295 295 295 296 296 296 297 297 297 298 299 300 302 303 303 304
322 321 319 319 318 317 318 320 320 320 320 318 317 316 315 314 314 316 318 317 316 315 313 313 313 313 314 312 311 311 311 312 312 312 312 312 312 311 310 309 308 307 308 307 307 308 308 307 307 306 305 306 307 307 307 307 307 307 306 304 301 300 299 300 302 302 301 300 296 294 295 296 296 296 296 297 297 296 297 297 297 298 299 299 300
319 320 320 320 320 318 317 318 318 320 320 318 318 318 317 316 315 316 318 318 317 317 316 315 314 313 314 314 313 311 310 311 312 312 312 312 312 312 311 311 310 310 310 309 307 308 308 308 308 307 307 305 305 306 307 307 307 306 304 301 298 297 296 296 297 297 297 297 295 294 296 296 296 296 296 296 296 296 297 297 297 297 297 297 297
319 321 321 321 321 320 317 316 317 319 320 319 318 318 318 318 318 318 319 319 318 318 318 317 316 316 315 315 315 314 313 312 312 312 312 313 313 312 312 312 312 311 311 310 310 309 309 308 308 308 308 307 305 305 307 307 306 305 303 299 297 296 295 295 295 294 294 295 295 295 296 296 296 296 296 296 296 296 296 296 296 296 296 296 296
322 322 321 321 320 318 316 317 318 320 320 319 319 318 318 318 318 319 319 319 319 319 319 318 317 317 317 317 317 317 316 315 314 313 313 313 313 312 312 313 312 312 311 311 311 311 310 309 309 308 308 308 306 306 305 306 306 305 302 299 298 297 296 295 295 295 295 295 296 296 297 297 297 296 297 296 296 296 296 296 296 295 295 295 295
322 322 321 320 318 317 318 319 320 320 320 320 319 319 318 318 319 319 319 319 319 318 319 319 318 317 317 317 318 318 318 317 316 315 314 314 314 315 314 314 314 313 312 312 312 312 312 311 310 310 309 308 308 307 306 306 305 304 302 300 299 298 297 296 295 295 296 296 297 297 297 297 297 297 297 297 296 296 296 296 296 295 295 295 295
321 321 321 319 318 318 319 319 320 320 320 320 319 319 319 319 318 318 318 318 318 317 317 318 319 318 317 317 317 318 318 318 317 316 315 315 315 316 317 316 316 315 314 313 312 312 312 312 311 311 310 310 309 308 307 306 305 304 303 301 300 299 298 297 297 297 297 297 297 297 297 297 297 297 297 297 297 296 296 296 296 295 295 295 295
321 321 321 320 319 319 319 319 319 320 320 319 319 319 319 318 316 317 318 318 318 318 318 319 319 318 317 317 318 317 317 317 317 317 316 316 316 318 318 318 317 317 316 315 314 313 313 313 312 312 311 311 310 309 308 307 305 304 303 302 301 299 298 298 297 298 298 298 298 298 298 298 298 297 297 297 297 296 296 296 296 295 295 295 295
320 321 321 320 321 321 320 320 320 320 320 320 319 319 319 318 318 318 319 319 318 317 318 317 317 316 316 318 318 317 317 318 318 318 318 317 317 318 318 318 317 317 317 317 315 314 314 314 313 312 312 311 310 310 309 307 306 305 303 303 302 300 299 298 298 298 298 298 299 299 299 299 298 297 297 297 297 296 296 296 295 295 295 295 295
320 320 320 320 321 320 320 320 320 320 320 320 320 320 319 319 319 319 320 319 318 317 317 317 316 316 317 318 318 318 317 318 319 319 318 318 318 318 317 317 317 317 317 317 317 316 315 315 314 313 312 311 310 310 309 308 307 305 303 303 302 300 299 298 298 299 299 299 299 299 299 298 298 297 297 297 297 296 296 295 295 295 294 295 294
320 320 320 320 320 319 318 318 318 319 320 320 320 319 319 319 318 318 319 319 319 319 319 319 318 318 318 318 318 319 319 319 319 319 319 319 319 319 318 318 318 318 318 317 317 317 316 315 314 314 313 311 310 310 309 308 307 304 303 304 303 301 299 299 299 299 299 299 299 299 298 298 298 297 297 297 297 296 296 295 295 295 294 293 294
320 320 320 320 319 319 318 318 318 318 319 318 319 319 318 319 318 319 319 319 319 319 318 318 319 318 318 318 319 319 319 319 319 320 320 319 319 319 319 319 319 319 318 318 318 317 317 316 314 314 314 312 310 310 309 308 306 304 304 304 303 301 300 300 300 300 300 300 299 298 298 297 297 297 297 297 297 296 296 295 295 294 293 292 292
316 316 317 319 319 319 320 320 319 319 320 320 320 319 318 318 318 318 317 316 316 315 316 317 318 318 318 318 318 318 319 319 320 320 319 319 319 319 319 319 319 319 318 318 318 318 317 317 316 315 315 312 310 310 309 306 304 304 305 304 302 301 300 300 300 300 300 300 299 298 298 297 297 297 297 297 296 296 295 294 293 292 292 292 291
309 310 310 313 315 314 315 315 315 317 319 319 317 315 314 314 314 313 312 311 312 313 313 314 314 315 316 316 317 317 318 319 319 319 319 318 316 315 315 316 316 317 317 317 318 318 317 317 317 316 315 312 309 309 308 305 304 305 305 303 302 301 300 300 300 300 300 299 299 298 297 297 297 296 296 296 295 294 293 293 292 292 291 291 291
306 307 306 307 308 307 308 308 309 311 312 313 311 310 310 311 310 309 308 308 308 308 308 309 309 310 311 313 314 315 316 317 318 318 317 316 315 313 313 313 314 315 316 316 316 317 317 317 316 315 314 311 309 308 306 305 305 305 304 303 301 301 300 300 300 299 299 299 298 297 297 296 296 295 295 294 293 293 292 292 292 292 291 291 291
306 306 306 306 306 306 306 306 307 308 308 308 309 309 309 308 307 306 306 306 306 306 306 306 306 306 307 309 310 312 314 315 316 317 317 315 315 313 312 312 312 313 314 314 315 315 316 315 314 312 311 309 307 306 305 305 305 305 303 302 301 300 300 300 299 299 298 298 297 297 296 295 294 294 293 293 292 292 292 292 292 292 291 291 291
305 305 305 305 306 306 306 306 306 307 307 307 307 307 306 306 306 306 305 304 304 304 303 303 304 304 304 304 305 307 309 312 314 316 316 316 315 314 313 312 311 312 313 313 313 312 312 311 310 310 309 307 305 304 305 305 305 304 303 301 300 300 299 299 298 297 297 296 296 295 295 294 293 292 292 292 292 292 292 292 292 292 291 291 291
305 305 304 304 305 305 305 306 306 307 307 306 306 306 306 306 306 305 305 304 304 304 303 303 303 304 303 303 303 303 304 307 310 313 315 316 315 314 313 312 311 311 311 311 311 310 309 308 307 307 306 305 304 304 304 304 303 302 301 300 300 299 299 298 297 296 295 295 294 294 293 293 292 292 292 292 292 292 292 292 292 292 291 291 291
305 305 305 305 305 305 305 305 305 306 306 306 307 306 306 306 306 305 305 305 305 305 304 304 305 305 305 304 303 302 303 305 307 311 314 315 314 313 312 312 311 311 310 310 308 307 306 306 305 304 304 303 303 303 302 302 302 301 301 300 300 299 297 296 295 295 294 294 293 293 293 292 292 292 292 292 291 291 291 291 291 291 291 291 291
303 304 305 306 306 306 306 305 305 306 306 306 307 307 306 306 306 306 306 306 305 306 306 306 306 306 305 304 303 303 305 307 308 311 313 314 313 312 312 311 310 310 308 307 306 305 304 304 303 303 302 302 302 301 301 301 301 300 299 299 297 296 295 295 294 294 293 293 293 292 292 292 292 291 291 291 291 290 290 290 290 290 291 291 291
301 302 303 304 306 306 306 306 306 306 306 306 306 306 306 306 306 306 305 306 306 306 306 306 307 306 306 305 304 304 306 308 310 311 312 312 311 311 310 310 309 309 307 305 304 303 302 302 301 301 300 300 300 299 299 298 298 297 297 296 295 294 294 293 293 293 292 292 292 291 291 291 291 290 290 290 290 290 290 290 290 290 290 290 290
300 301 301 302 303 304 305 305 305 305 305 305 305 306 306 305 305 305 305 306 306 307 307 307 307 307 306 305 304 304 305 308 310 311 310 310 309 309 309 308 308 307 306 304 302 302 301 300 299 299 298 298 298 297 297 296 295 295 295 294 294 293 293 293 292 292 292 291 291 290 290 290 290 290 290 289 289 289 289 289 289 289 289 290 290
300 300 300 301 302 302 303 304 304 304 305 305 304 305 305 305 305 305 305 306 307 307 308 307 307 306 306 305 305 305 305 307 309 310 309 308 307 307 307 306 306 306 305 303 302 301 299 299 298 297 297 297 296 296 295 294 294 293 293 293 293 293 292 292 292 291 291 290 290 290 290 290 289 289 289 289 288 288 288 288 288 288 289 289 289
300 300 300 300 301 301 302 302 303 304 304 304 304 305 305 304 304 304 304 305 306 306 307 306 306 306 306 305 306 306 306 307 308 308 307 306 305 305 305 305 304 304 303 302 301 299 298 297 297 296 296 295 295 294 294 293 293 293 293 292 292 292 291 291 290 290 290 290 289 289 289 289 288 288 288 288 287 287 287 288 287 287 287 288 288
299 299 300 300 300 301 301 302 303 303 304 304 304 304 304 304 304 304 304 304 305 305 305 306 306 306 305 306 306 307 307 307 307 307 305 304 303 303 302 302 301 301 300 299 298 297 296 296 295 295 294 294 294 293 293 293 292 292 292 292 291 291 290 290 290 289 289 289 288 288 288 288 288 287 287 287 287 287 287 287 287 287 287 287 287
298 298 299 299 300 300 300 301 302 303 303 304 304 304 304 304 303 303 303 304 304 304 305 305 305 305 305 305 305 305 305 305 306 305 303 302 301 300 300 299 298 298 298 297 296 295 295 295 294 294 294 293 293 293 292 292 291 291 291 290 290 290 289 289 289 288 288 288 287 287 287 287 287 287 287 286 286 286 286 286 286 286 286 286 286
298 298 298 299 299 300 300 300 301 302 303 303 303 304 304 303 303 303 303 303 304 304 304 305 305 305 305 304 304 304 303 302 302 302 301 300 299 298 298 297 297 296 296 296 295 295 294 294 293 293 293 292 292 291 291 291 290 290 290 289 289 289 288 288 288 288 287 287 287 287 286 286 286 286 285 285 285 285 285 285 285 285 285 285 286
298 298 297 297 298 300 300 300 301 301 302 302 302 303 303 302 303 303 303 303 303 303 304 304 304 304 305 304 303 303 301 300 300 300 300 299 298 297 297 296 296 296 296 296 295 294 294 293 292 292 292 291 291 290 290 290 289 289 289 288 288 288 288 288 287 287 287 287 286 286 285 285 285 285 285 285 285 285 285 285 285 285 285 285 286
297 298 298 298 298 299 300 300 300 301 301 301 302 302 302 302 302 302 303 303 303 303 304 303 303 303 303 304 304 303 302 301 300 299 299 298 298 297 297 296 296 296 295 295 294 293 292 292 292 291 291 290 290 290 289 289 288 288 288 288 288 288 287 287 287 287 287 286 286 285 285 285 285 285 285 285 285 285 285 285 285 285 286 286 286
296 296 297 298 298 299 299 300 300 300 300 300 301 302 302 302 303 303 303 303 303 303 303 303 303 303 303 304 305 304 303 303 301 298 297 297 297 296 296 296 296 295 294 293 293 292 292 291 291 291 290 290 290 289 289 288 288 288 288 287 287 287 286 286 286 286 286 286 286 286 285 285 286 286 286 286 286 286 286 286 286 286 286 286 286
294 295 296 297 297 298 299 299 299 300 300 300 300 301 301 302 302 303 303 303 304 304 303 303 303 304 304 304 304 303 303 303 300 297 296 295 295 295 295 295 294 293 292 292 292 292 292 291 291 290 290 290 289 289 288 288 288 287 287 286 286 286 286 286 286 286 286 286 286 286 286 286 286 286 286 286 286 286 286 286 286 286 287 287 287
291 293 294 295 296 297 298 298 299 299 299 299 300 300 300 301 301 302 302 303 303 303 303 303 304 304 304 304 304 304 303 302 299 297 295 295 295 295 294 293 292 292 292 292 292 291 291 291 290 290 290 289 289 288 288 288 287 286 286 286 286 286 285 285 285 285 286 286 286 286 286 286 286 286 286 287 287 287 287 287 287 287 287 287 287
290 291 292 294 295 296 296 297 297 298 298 299 299 299 300 300 301 301 301 302 303 303 304 304 304 304 305 305 304 304 304 302 298 295 294 294 295 294 293 292 292 292 292 292 292 291 291 291 290 290 289 289 288 288 288 287 286 286 287 287 287 286 285 284 284 286 287 287 287 286 286 286 286 286 286 287 287 287 287 287 287 287 287 287 287
291 291 291 292 293 294 295 296 296 297 298 298 299 299 299 300 300 301 301 301 303 304 305 304 304 305 306 306 304 303 303 301 297 294 294 295 294 293 292 292 292 292 292 292 291 291 291 290 290 290 289 289 288 288 287 287 287 287 287 287 287 285 284 284 285 286 288 288 288 287 287 286 286 286 287 287 287 287 287 287 287 287 287 287 287
291 291 291 291 291 293 294 295 296 296 297 297 298 298 299 299 299 300 300 301 303 303 303 304 305 305 305 305 304 302 301 298 295 294 294 294 293 292 292 292 292 292 292 291 291 291 290 290 290 289 289 288 288 287 287 287 287 287 288 288 287 285 284 284 285 287 288 288 288 288 287 287 287 287 287 287 287 287 287 287 287 287 287 287 287
292 292 292 292 292 292 293 294 295 295 296 296 296 297 297 298 298 299 300 301 302 303 302 302 303 303 302 303 302 300 297 295 294 294 294 293 292 292 292 292 292 292 292 291 291 291 290 290 290 289 288 288 287 287 287 287 288 288 288 288 286 284 283 284 286 288 289 289 288 288 287 287 287 287 287 287 287 287 287 287 287 287 287 287 287
293 293 292 292 292 292 292 293 294 295 295 296 296 296 296 297 298 298 298 299 301 301 301 300 300 300 299 298 297 296 294 294 294 293 292 292 292 292 292 292 292 292 291 291 291 291 290 290 289 289 288 288 287 287 287 288 288 288 288 287 285 284 283 284 287 289 290 289 288 288 287 288 288 287 287 287 287 286 287 287 287 287 287 287 287
293 293 293 293 293 293 293 292 293 294 295 295 295 295 296 296 297 297 297 298 299 299 298 297 297 299 297 295 293 293 293 292 292 292 291 291 292 292 292 292 292 292 292 291 291 290 290 290 289 288 288 287 287 288 288 288 288 288 288 286 284 283 283 285 288 290 290 289 288 288 288 288 287 287 286 286 286 287 287 287 287 287 287 287 287
293 293 293 293 293 294 294 293 293 293 294 295 295 295 295 296 296 296 296 297 297 296 296 295 295 296 295 293 292 292 291 291 291 291 291 291 292 292 292 292 292 292 291 291 291 290 290 289 289 288 288 288 288 288 288 288 288 288 287 285 284 283 284 286 289 290 290 289 288 288 288 287 287 287 286 286 286 287 287 287 287 287 287 287 287
293 293 293 293 294 294 294 294 293 293 293 294 295 295 295 296 296 295 295 296 295 294 294 293 292 292 292 292 292 291 291 290 291 291 291 292 292 292 292 292 292 291 291 291 290 290 289 289 288 288 288 288 288 288 288 288 287 286 285 284 283 283 285 287 289 290 289 289 288 288 288 288 287 287 286 286 287 287 287 287 287 287 287 287 287
293 293 293 293 293 294 294 294 293 293 293 294 294 295 296 296 295 294 294 294 293 292 292 291 290 290 290 290 291 291 291 291 291 292 292 292 292 292 292 292 292 291 291 290 290 289 289 288 288 288 288 288 288 288 288 287 286 286 285 284 283 284 285 287 289 290 290 289 289 288 288 288 288 287 286 287 287 287 287 287 287 287 287 288 288
293 293 293 293 293 293 294 293 293 293 293 294 294 295 296 295 294 293 292 292 292 291 290 289 289 289 289 290 290 291 291 291 292 292 292 292 292 292 292 291 291 291 290 290 289 289 288 288 288 288 288 288 288 288 287 286 286 285 284 284 284 285 286 288 289 290 290 290 290 289 289 288 288 287 287 287 287 287 287 287 287 288 288 288 288
293 293 293 293 293 293 294 293 293 292 292 293 293 293 294 293 292 292 291 291 291 290 289 289 289 289 289 290 290 291 291 292 292 293 292 292 292 292 291 291 291 290 290 289 289 289 288 288 288 288 288 288 288 287 286 286 285 285 284 284 284 286 287 289 289 289 290 290 290 289 289 288 288 287 287 287 287 287 287 287 288 288 288 288 288
293 292 292 292 292 292 292 292 291 291 291 291 291 291 291 291 291 291 290 290 290 290 290 289 289 289 289 290 291 291 292 292 292 292 292 292 292 291 291 290 290 290 289 289 289 288 288 288 288 288 288 288 288 286 286 286 285 284 284 284 285 287 288 289 289 289 290 290 290 289 289 288 288 288 287 287 287 287 287 287 288 288 288 289 289
292 292 291 291 291 291 290 290 290 290 290 290 290 290 290 290 290 290 290 290 289 290 290 289 289 290 290 291 291 292 292 292 292 292 292 292 291 291 290 290 290 289 289 289 288 288 288 288 288 288 289 288 287 286 286 286 285 284 284 285 286 287 288 288 289 289 290 290 290 289 288 288 289 288 287 287 287 287 287 288 288 288 288 289 289
292 291 291 291 291 290 290 290 290 290 290 290 290 290 290 290 290 290 291 290 290 290 290 290 290 291 291 291 291 292 292 292 292 292 291 291 291 290 290 289 289 289 289 288 288 288 288 288 288 289 288 287 286 286 286 286 285 284 284 285 286 287 288 288 289 289 290 290 289 289 289 289 289 289 288 288 287 288 288 288 288 288 289 289 289
292 291 291 291 291 291 291 291 290 291 291 291 291 291 291 291 291 291 291 291 291 291 291 291 291 292 291 291 292 292 291 291 291 291 291 291 290 290 290 289 289 289 288 288 288 288 288 288 288 289 288 286 286 286 286 286 285 285 284 285 286 287 287 288 289 290 290 290 289 289 289 289 289 289 289 288 288 288 288 288 288 289 289 289 290
293 292 292 292 292 292 291 291 291 291 291 291 292 292 292 292 292 292 292 292 291 291 291 292 292 292 292 291 291 291 290 290 290 290 290 290 290 289 289 289 288 288 288 288 288 288 288 288 288 288 287 286 285 286 286 286 286 286 285 285 286 286 287 288 289 290 290 290 289 289 289 289 289 289 289 289 288 288 288 289 288 289 289 290 290
294 293 293 293 293 293 293 293 292 292 292 292 292 292 292 292 292 292 292 292 292 292 292 292 291 291 291 290 290 290 290 290 290 290 290 289 289 289 289 288 288 288 288 287 287 288 288 288 288 288 286 285 285 286 285 285 286 287 286 285 285 286 287 288 289 290 290 290 289 289 289 289 289 289 289 289 289 289 289 289 289 289 289 290 290
293 293 293 293 293 292 293 293 292 292 292 292 291 291 291 291 290 290 290 291 291 291 291 291 290 290 289 289 289 289 289 289 289 289 289 289 289 288 288 287 287 287 287 287 287 287 288 288 288 287 286 285 286 286 286 286 286 286 286 286 285 285 287 288 289 290 290 290 289 289 289 289 289 289 289 289 289 289 289 289 289 289 289 289 290
292 291 291 291 290 290 291 291 291 291 291 291 290 290 290 289 289 289 289 289 289 289 289 289 289 289 289 289 289 289 289 288 288 288 288 288 287 287 287 287 287 287 287 287 287 287 288 288 288 287 286 286 286 286 286 286 286 286 286 286 286 285 286 287 289 290 290 290 289 289 289 289 289 289 289 289 289 289 289 289 289 289 289 289 290
Wind_Speed
24 23 20 19 21 22 22 24 24 21 20 19 18 18 16 13 11 9 8 8 7 7 7 7 6 6 7 9 10 10 9 8 6 5 4 3 1 1 2 2 2 3 5 6 7 6 6 7 8 7 6 6 7 7 7 7 7 7 8 8 10 9 9 11 9 6 5 5 8 11 12 12 14 15 15 14 14 13 11 10 9 8 9 10 10
24 22 21 22 23 23 21 22 22 20 20 20 19 19 18 14 12 12 12 12 11 10 9 9 8 8 8 9 10 11 11 10 9 8 6 5 4 3 2 2 2 2 2 4 5 4 3 4 5 5 5 5 6 6 6 6 5 6 7 7 9 10 9 9 8 6 5 5 8 12 13 13 15 16 17 17 16 15 14 12 12 11 10 10 11
21 22 23 24 25 24 22 21 19 19 21 22 21 21 19 16 13 13 15 15 14 13 12 10 10 10 10 10 10 11 12 12 12 11 9 8 6 5 5 4 4 4 3 3 4 3 2 3 3 3 3 4 5 5 5 5 4 5 7 8 8 9 9 9 8 7 7 6 8 13 14 14 16 16 17 17 16 16 16 15 14 13 13 13 12
18 21 23 24 25 25 23 22 20 20 22 23 23 21 19 17 15 15 17 16 14 14 14 14 13 13 12 11 11 11 13 14 14 14 13 11 9 8 7 7 7 6 5 5 5 4 3 3 3 3 3 3 4 5 4 4 4 5 6 7 8 8 9 9 9 8 8 7 9 12 13 14 14 16 16 16 16 16 17 17 16 16 17 16 16
17 20 22 23 23 23 22 21 21 21 24 24 23 22 20 18 16 15 14 11 10 12 13 15 16 15 13 12 13 13 14 15 17 17 17 15 12 11 10 9 9 9 9 8 7 7 6 5 4 4 4 3 3 4 3 3 3 4 5 6 7 7 7 8 9 8 8 9 9 10 12 13 13 15 16 17 18 18 18 19 19 20 21 20 20
15 16 19 21 22 21 19 19 19 20 23 24 23 23 22 18 15 13 11 8 10 12 13 15 16 16 14 14 16 16 16 18 18 20 22 20 15 13 13 11 11 12 12 11 10 10 9 8 7 7 7 6 5 4 3 3 3 2 3 4 5 5 5 6 7 7 8 9 9 9 11 12 13 14 16 18 19 20 22 22 22 23 24 24 24
13 13 15 18 19 18 17 17 16 16 19 22 23 23 21 18 15 14 12 14 16 16 15 13 12 14 16 18 20 20 18 17 17 18 23 24 19 16 15 14 13 14 14 14 13 13 12 11 11 10 10 9 8 7 6 5 3 2 1 1 3 3 4 5 5 6 7 7 8 10 10 11 13 14 15 17 18 20 23 25 26 28 28 28 28
12 12 13 14 16 17 18 17 16 15 17 20 22 22 19 16 15 14 13 15 16 15 15 12 10 14 20 22 22 21 19 19 19 19 22 24 23 18 15 15 15 16 17 17 16 15 14 14 14 13 13 12 11 9 8 6 4 3 2 0 1 2 3 4 4 4 5 6 8 9 10 11 13 14 16 18 18 19 21 22 25 28 30 30 28
11 12 12 13 14 16 17 17 16 15 16 18 19 19 16 15 14 13 12 13 12 13 14 15 16 20 23 22 20 20 20 20 18 16 16 19 19 17 15 15 16 17 18 18 18 18 17 17 16 16 16 15 13 12 9 7 5 4 3 1 2 3 3 3 4 4 5 7 8 10 12 13 14 15 16 17 16 17 18 19 21 24 28 32 28
10 10 10 11 13 14 14 15 16 16 16 16 16 15 15 14 13 12 11 11 11 12 15 16 18 21 20 19 18 18 19 19 16 14 14 15 15 15 15 15 15 16 17 17 18 19 19 20 19 18 18 18 16 13 11 9 7 6 3 1 2 3 4 4 4 4 5 7 8 10 12 13 13 14 15 15 16 16 18 19 21 23 26 29 28
8 8 9 9 11 12 12 12 14 15 15 15 15 14 14 13 11 10 10 9 9 10 12 13 15 17 18 18 17 17 17 17 17 15 13 12 12 12 12 12 12 13 14 15 16 17 18 20 20 20 21 20 17 14 13 12 10 7 5 2 1 2 2 3 3 4 5 6 7 8 10 11 12 13 14 16 17 18 19 20 21 23 23 21 21
3 5 6 7 9 9 9 10 12 14 14 13 12 11 11 11 10 9 7 7 7 8 9 10 11 13 15 16 14 13 13 13 12 10 7 7 7 8 9 10 10 12 13 14 15 16 17 18 19 20 21 21 18 16 15 13 11 8 5 2 2 2 2 2 3 4 6 6 7 7 8 10 12 13 14 16 18 19 21 21 21 22 21 19 18
2 3 3 5 6 6 7 7 9 10 11 10 9 7 7 7 6 6 5 5 7 8 8 8 7 9 11 11 9 8 7 7 6 4 3 3 3 4 5 7 8 10 11 13 15 17 17 17 18 19 20 19 18 17 17 15 13 9 6 4 4 3 3 3 4 5 7 7 7 7 8 10 11 13 14 15 18 20 21 23 23 21 20 20 20
3 3 3 4 4 5 6 6 6 7 7 8 7 6 5 5 5 6 6 7 7 6 5 5 4 5 5 5 5 3 3 3 2 2 2 2 1 2 3 5 7 8 10 11 13 15 15 16 16 17 17 17 17 18 18 17 13 9 7 6 5 4 4 4 5 6 7 7 7 7 8 9 10 12 14 15 16 18 19 21 22 20 20 19 19
4 3 1 1 2 3 4 5 5 6 7 7 8 7 7 8 9 10 10 10 9 8 7 6 5 4 2 0 1 2 2 3 3 3 3 3 2 3 4 5 7 9 10 10 11 12 13 13 14 15 15 16 17 19 19 16 12 9 8 7 7 6 6 6 6 7 7 7 7 7 8 9 11 12 14 15 15 16 16 17 17 18 18 19 20
7 6 5 3 2 2 3 3 3 5 6 6 7 9 11 12 13 13 11 10 8 7 6 5 4 3 2 2 2 2 3 4 4 5 5 4 4 4 4 5 6 8 8 8 8 9 10 10 10 12 13 14 17 19 16 13 10 9 9 9 8 7 6 5 5 5 5 6 7 8 9 11 12 13 13 14 14 14 14 15 15 16 16 18 20
8 6 5 3 2 3 4 4 4 5 6 7 9 10 11 11 11 10 10 9 7 5 4 3 3 3 3 3 3 3 4 4 5 6 6 6 5 5 4 4 4 6 6 6 5 5 5 5 6 8 11 14 18 18 13 11 10 9 9 8 7 5 4 4 5 5 6 7 9 10 11 12 13 13 13 13 13 13 14 14 16 16 16 15 14
9 7 4 4 3 2 2 5 7 8 9 9 9 9 9 9 9 9 8 7 6 5 4 5 4 4 5 7 7 6 5 4 4 5 6 7 6 5 5 4 2 3 4 4 4 3 3 2 3 6 10 14 17 15 12 10 9 8 8 7 5 4 5 5 6 6 7 9 10 11 12 12 12 12 12 12 12 13 14 16 16 17 16 15 14
10 7 2 2 2 4 2 1 4 7 9 11 11 10 9 9 9 9 8 6 4 5 5 3 2 4 7 9 10 9 7 5 4 4 5 6 6 5 5 4 2 1 1 1 1 1 1 2 3 5 8 11 12 11 10 8 7 7 7 6 5 5 6 6 7 8 9 10 11 11 12 12 12 13 13 13 13 13 15 16 17 17 19 19 18
12 11 10 8 9 10 10 7 4 3 5 7 9 9 9 9 8 8 6 5 4 4 4 1 1 3 6 8 10 10 7 5 4 4 4 5 5 5 5 5 3 4 5 5 5 6 7 7 7 7 7 7 7 7 7 6 6 5 5 4 4 4 5 7 8 10 11 11 12 12 13 13 13 14 14 15 15 15 15 15 16 18 19 20 19
13 14 15 16 18 18 18 16 14 12 10 10 9 8 8 8 8 7 7 7 6 6 5 3 3 2 4 6 8 8 7 5 4 3 2 4 5 5 5 5 5 6 7 8 8 8 9 9 8 7 6 5 5 4 3 2 2 3 3 3 4 5 6 8 9 10 10 11 12 12 13 14 15 16 16 17 17 16 16 16 16 17 18 19 20
13 13 14 16 18 20 19 18 17 16 15 15 13 12 12 11 11 10 9 9 8 8 7 5 5 4 3 3 4 6 6 5 4 2 2 3 4 5 6 6 6 6 7 9 9 9 9 8 7 6 4 3 2 1 1 2 3 3 4 4 5 6 7 8 9 9 10 12 13 15 16 18 18 19 19 19 19 18 18 18 18 19 19 20 21
14 14 14 14 15 17 19 19 18 17 17 16 16 16 16 15 13 12 11 10 10 9 8 7 6 6 4 3 2 2 4 4 3 2 2 3 4 5 6 7 7 7 7 9 9 9 8 7 6 4 3 1 0 2 2 3 3 3 3 4 4 5 6 8 9 11 12 14 16 18 19 20 21 22 22 22 22 22 22 23 23 23 23 23 23
16 16 14 14 13 14 16 19 21 21 20 19 19 19 19 18 16 14 13 12 12 11 10 9 8 7 7 6 5 3 1 2 3 3 3 4 5 6 7 8 8 8 8 9 10 9 8 7 5 3 1 0 1 2 2 2 2 2 2 3 4 6 7 9 10 12 14 15 17 18 19 20 21 22 22 22 23 24 24 25 26 25 25 26 26
19 19 17 15 14 13 13 15 19 22 22 21 21 21 21 20 18 16 15 14 13 12 11 11 10 9 9 9 8 7 6 4 4 4 4 5 6 7 8 9 9 8 9 10 10 9 7 6 4 2 1 1 1 1 1 1 1 2 3 4 6 7 9 10 12 13 14 16 17 18 19 20 20 21 22 23 24 25 25 25 25 25 25 25 25
21 21 21 19 17 15 14 13 14 18 21 22 22 22 21 20 19 17 16 16 15 13 13 13 12 11 11 11 10 9 9 8 7 7 6 7 7 8 9 9 9 8 8 9 9 8 7 5 4 4 3 3 3 3 3 2 2 3 5 6 7 9 10 11 12 14 15 16 17 18 20 21 22 23 23 22 22 22 21 20 21 20 20 20 20
22 22 22 22 20 17 15 14 12 13 17 21 23 23 22 21 20 19 18 17 16 15 14 13 13 12 12 12 12 11 10 10 10 10 10 10 10 10 9 9 9 8 8 9 8 7 7 7 6 5 5 4 4 3 3 3 4 5 6 7 8 9 11 12 13 14 15 16 18 20 21 21 21 21 19 17 17 17 16 16 17 17 17 17 18
23 24 23 22 21 20 17 15 13 12 13 16 19 22 22 21 20 20 18 18 17 17 15 13 12 11 12 13 13 13 13 13 13 13 13 13 13 12 11 10 9 8 8 8 9 9 9 8 8 7 6 5 4 4 4 4 5 6 6 7 9 10 11 13 14 14 15 17 18 19 18 17 17 16 15 15 15 15 15 15 16 17 16 16 17
22 23 23 22 22 21 19 17 16 14 12 12 14 17 19 20 20 19 18 17 16 15 13 12 11 10 11 13 15 16 17 17 16 15 14 13 12 11 10 9 8 7 7 8 9 11 11 10 9 7 5 4 4 5 5 6 6 6 7 9 10 11 12 13 15 16 17 18 18 16 15 15 15 15 15 16 15 15 16 17 17 17 17 17 17
23 23 23 22 22 21 19 17 17 16 15 12 11 13 15 17 17 17 16 16 14 13 12 11 10 11 11 13 15 16 14 14 16 16 15 13 11 10 9 9 8 8 9 9 10 11 12 10 8 6 5 5 5 5 5 6 6 7 9 10 11 13 14 15 16 17 18 18 18 16 16 16 16 16 16 16 17 18 19 19 18 17 17 18 18
27 26 25 23 23 22 19 17 15 15 16 14 12 13 15 14 14 14 15 15 15 14 13 12 11 11 11 13 16 15 11 10 15 19 17 14 13 11 10 10 10 10 11 11 11 12 10 9 7 5 4 4 4 4 4 5 7 9 11 12 12 14 16 18 19 19 20 19 19 19 18 17 17 17 18 19 21 21 20 19 18 17 17 18 19
27 29 29 27 25 24 22 20 17 15 14 14 14 15 16 14 12 12 13 15 16 15 14 13 13 12 11 11 13 15 13 13 17 19 18 16 14 13 12 12 12 13 12 11 11 11 9 7 6 5 3 3 2 3 4 5 7 9 11 14 15 17 18 19 20 20 20 21 21 20 19 18 18 19 20 21 21 21 19 19 19 19 19 19 20
26 28 29 29 29 27 25 22 19 16 14 13 14 17 17 16 15 15 14 14 14 13 13 14 14 13 12 10 10 12 13 15 18 20 19 17 16 15 14 15 15 16 13 11 10 10 8 6 6 4 2 1 1 2 4 5 7 9 12 15 18 19 20 20 21 21 21 21 21 21 20 19 18 19 20 20 20 21 21 20 21 20 20 20 20
26 27 27 28 29 29 27 24 21 18 15 12 13 16 19 20 20 19 17 14 12 12 14 15 15 12 12 12 11 10 12 16 20 22 20 19 18 17 17 18 18 15 12 9 9 9 7 6 5 3 1 1 1 2 4 5 8 11 14 17 19 20 21 21 21 21 21 21 22 22 21 20 20 20 19 20 21 23 23 22 21 20 19 19 19
25 26 27 27 28 29 30 27 23 20 17 15 12 13 16 19 20 19 17 16 14 14 15 16 16 14 13 13 13 12 14 19 23 23 21 20 19 19 20 21 19 15 11 9 7 7 6 5 4 2 1 1 1 2 4 7 10 13 15 18 21 22 22 22 22 22 22 22 23 22 21 21 22 22 22 22 23 23 23 22 21 20 20 20 20
25 25 25 26 27 28 30 29 26 22 20 19 16 13 13 16 18 18 17 16 15 16 17 17 17 16 14 13 13 14 18 22 24 23 22 21 21 20 20 20 18 15 12 10 7 6 5 4 3 1 1 1 1 3 6 9 12 14 16 19 22 23 23 23 23 23 23 23 23 23 22 23 25 25 24 24 23 23 23 22 22 21 21 21 21
25 24 24 25 26 27 28 29 28 25 22 20 18 16 14 14 15 16 16 16 16 18 19 19 19 19 16 15 16 19 23 25 25 24 23 22 21 18 16 16 15 13 11 9 7 6 5 3 2 1 1 0 2 5 8 11 13 15 18 20 22 22 23 22 22 22 23 24 24 24 24 25 26 26 24 23 23 23 23 23 23 23 23 23 22
25 24 24 24 24 25 26 27 27 26 23 21 19 17 15 13 13 14 16 17 18 19 20 20 21 22 23 22 23 25 27 27 26 25 24 23 20 17 14 12 11 10 8 8 6 5 4 2 1 1 1 1 3 7 10 13 15 17 19 22 22 22 22 22 21 21 22 24 24 25 25 26 26 25 23 22 22 24 25 25 24 24 23 23 21
24 23 22 22 23 23 23 24 25 25 23 21 19 17 15 13 13 15 16 18 18 19 20 21 22 24 27 29 29 28 28 27 27 26 24 21 18 16 14 12 10 8 8 7 5 4 3 2 2 2 1 2 5 8 11 14 16 18 21 22 23 23 23 21 21 21 22 23 25 25 26 26 26 26 24 23 23 24 25 25 25 24 23 22 21
14 16 17 19 21 21 20 20 22 22 22 21 19 18 16 15 15 16 18 19 19 20 21 22 23 25 28 32 33 31 28 27 26 25 22 19 17 15 14 12 10 9 8 6 5 4 3 2 2 2 0 4 7 9 12 14 17 19 21 22 22 23 23 21 21 21 22 23 25 26 26 27 28 27 26 26 25 25 24 25 25 24 24 23 23
3 8 11 15 18 17 16 16 18 19 20 20 20 19 17 16 17 18 18 18 19 19 19 19 21 24 27 30 31 30 27 27 26 23 20 18 17 15 13 11 9 8 7 6 5 4 2 3 3 1 2 5 8 10 13 15 18 20 21 22 22 23 22 21 21 22 23 24 25 26 27 28 28 28 27 27 27 26 26 26 25 25 24 23 23
4 5 8 11 12 12 12 13 15 17 18 19 20 20 19 18 18 19 18 18 19 19 18 18 20 23 24 26 27 26 26 25 24 21 18 16 14 13 12 10 9 8 7 6 5 4 3 4 3 0 3 6 9 11 14 16 19 20 21 22 22 23 22 22 22 23 23 25 26 27 27 28 29 28 28 28 27 26 26 26 25 24 23 22 21
7 7 7 8 9 9 10 11 13 14 16 17 18 18 18 18 18 18 19 19 20 20 20 22 23 22 22 22 23 23 23 22 20 17 15 13 12 11 12 11 9 8 8 6 4 4 5 5 2 2 5 7 10 13 15 17 18 20 20 21 21 22 22 22 23 24 24 25 27 28 28 28 29 29 28 27 27 26 26 25 24 24 23 22 21
14 13 12 11 11 12 12 12 14 15 16 16 16 17 18 19 19 20 20 20 20 20 22 23 23 23 21 19 19 19 19 18 16 13 12 11 12 13 13 11 10 9 7 5 3 3 5 4 0 3 5 8 11 13 14 16 18 19 19 19 19 20 21 22 24 24 24 25 27 28 28 28 28 28 28 27 26 26 25 25 24 23 22 21 20
20 19 18 18 17 17 17 17 18 19 19 19 19 19 20 21 22 22 22 21 21 22 23 22 22 22 20 17 15 15 14 12 11 11 11 13 14 14 13 11 9 8 5 3 2 3 4 2 1 4 6 8 10 12 13 15 17 17 17 17 18 19 21 22 23 23 23 24 26 26 27 27 28 28 27 27 26 25 25 24 23 22 21 20 19
24 23 22 22 22 21 21 20 21 21 21 22 22 22 22 23 24 25 24 23 22 23 23 21 20 19 17 14 12 11 10 11 13 14 15 16 15 13 11 10 9 7 4 3 3 3 2 0 2 5 7 8 10 11 12 14 16 16 16 16 17 18 20 22 22 22 22 23 24 25 26 26 27 27 26 25 24 24 23 23 23 21 20 19 18
26 26 25 24 24 24 23 23 23 24 23 23 23 23 23 23 24 24 23 22 21 20 19 18 17 15 14 12 11 12 13 16 17 18 17 15 13 12 10 9 8 6 4 3 2 2 1 1 3 5 7 8 9 10 12 13 15 16 16 17 18 18 20 21 21 21 22 23 23 24 25 25 26 26 25 24 23 23 23 22 22 20 19 18 16
25 25 25 25 25 25 24 24 24 24 24 23 23 22 21 21 21 21 19 18 18 17 16 15 15 14 13 13 14 16 18 19 18 17 15 13 12 10 9 8 7 6 4 3 2 2 2 2 4 6 7 8 9 10 11 13 14 16 18 18 18 19 20 20 20 20 21 22 23 23 24 24 24 25 24 23 23 22 22 22 21 20 18 17 15
22 22 22 22 23 22 22 22 22 22 21 21 21 20 19 19 18 18 17 16 16 15 15 15 14 14 15 17 18 19 19 17 16 15 13 11 10 8 8 7 7 6 5 3 3 2 2 3 5 6 7 8 9 10 12 12 14 16 18 19 19 19 19 19 19 19 20 22 22 23 23 23 23 23 23 23 22 21 21 21 20 19 18 17 15
20 20 20 20 20 19 19 19 19 19 19 19 19 19 19 18 18 17 17 17 16 15 15 15 16 17 18 19 19 18 17 15 14 12 11 9 8 7 7 6 6 6 5 4 3 3 3 4 6 7 8 8 9 11 12 13 13 15 17 18 19 19 19 19 18 18 19 21 23 23 23 23 22 22 23 23 22 22 21 20 20 19 17 16 15
19 19 19 20 19 19 19 19 19 19 18 19 19 19 18 18 18 17 17 17 17 17 17 17 18 19 20 19 18 16 14 13 11 10 8 7 6 5 5 5 5 5 4 4 3 3 4 5 6 7 8 9 10 12 13 14 14 13 14 17 19 19 19 18 18 18 18 20 22 22 22 22 22 23 23 23 23 22 22 20 19 18 17 15 14
Wind_Direction
216 216 210 207 208 209 208 205 204 208 210 206 203 205 205 199 196 207 216 222 232 235 231 231 233 244 255 257 258 257 256 256 257 257 260 262 246 178 138 131 146 143 137 137 130 115 107 110 108 106 113 116 110 106 105 101 95 90 83 77 80 79 75 89 106 111 95 68 41 37 35 31 31 30 30 30 31 28 23 20 18 12 10 8 5
219 214 206 204 209 211 208 205 207 213 216 212 210 213 212 201 195 209 223 226 227 230 232 233 236 243 250 256 260 259 258 259 258 259 257 255 255 252 233 207 199 188 171 169 163 147 128 124 117 105 107 115 116 116 113 110 102 91 81 71 73 74 70 82 101 104 97 79 45 39 36 31 29 28 24 22 22 21 20 18 17 14 8 2 356
220 213 212 213 216 217 215 214 219 223 220 217 217 217 214 207 202 210 224 230 230 231 235 236 237 240 243 248 253 256 260 262 263 264 260 256 256 255 254 248 240 237 227 210 203 200 183 163 152 130 119 118 119 120 116 107 96 83 76 66 64 66 61 65 81 88 86 74 44 37 34 29 26 25 22 20 18 17 15 16 17 16 12 7 1
215 213 216 220 222 222 221 225 232 232 224 220 220 219 216 214 214 216 224 232 236 238 241 242 244 248 252 255 257 260 263 267 270 268 261 259 261 258 259 262 260 258 253 240 233 237 235 214 201 185 167 151 132 126 123 109 90 73 70 61 51 53 53 52 59 70 78 74 51 37 32 29 25 20 16 14 14 14 14 12 10 10 9 8 5
211 214 217 220 220 219 220 226 232 231 225 221 220 219 215 215 221 224 225 234 251 257 256 254 251 251 255 260 263 266 269 273 280 283 274 264 262 263 262 263 267 268 265 261 253 249 250 244 237 232 221 203 171 152 142 126 105 78 68 59 45 42 44 45 49 57 65 68 58 40 30 27 23 17 11 8 5 5 6 6 6 5 2 1 2
206 212 218 218 213 213 218 223 225 225 223 221 220 218 216 215 221 224 219 226 251 263 267 264 258 255 257 262 264 267 273 275 281 288 282 271 264 265 264 263 268 270 268 267 264 261 261 257 253 252 249 242 226 208 193 176 148 106 77 59 43 35 37 44 47 49 54 59 54 40 29 23 20 17 12 7 4 1 359 358 358 359 356 355 356
196 203 211 213 211 211 216 220 223 225 225 223 220 218 218 217 220 224 218 215 226 238 248 258 264 262 264 267 267 270 275 275 274 276 274 270 266 267 267 266 268 268 267 266 264 264 266 262 258 259 260 257 248 239 228 213 191 156 114 53 35 25 30 40 41 38 42 44 38 31 27 22 16 14 11 7 5 3 0 356 352 351 351 351 350
190 194 200 206 211 216 221 225 227 226 223 221 218 217 218 219 224 232 228 219 222 233 243 253 263 266 268 268 266 265 269 273 273 270 269 269 270 273 275 274 273 270 267 264 261 261 263 263 260 260 262 262 258 255 247 234 222 207 202 192 13 9 23 30 24 22 23 23 19 15 14 12 10 7 5 6 5 2 1 356 349 346 345 345 345
185 193 198 203 210 215 219 222 223 221 218 217 218 218 221 228 233 236 234 230 234 244 248 253 257 260 264 263 258 259 266 272 274 271 268 270 273 278 282 279 277 275 271 268 264 259 259 261 261 260 261 260 258 258 254 249 249 242 230 251 347 1 9 6 2 5 3 4 3 357 354 358 3 2 1 3 3 356 352 350 345 343 340 339 342
176 186 193 200 210 216 219 220 221 220 218 216 216 217 221 227 228 227 228 231 239 246 247 250 250 250 253 254 255 262 266 270 273 272 270 272 276 279 280 280 280 279 277 275 269 263 260 260 259 259 257 252 250 251 246 241 245 243 236 263 357 2 357 344 340 341 345 351 351 348 346 348 353 355 353 353 350 345 345 345 342 340 340 339 338
172 181 187 194 207 221 230 228 219 216 217 217 217 218 219 220 220 223 232 240 246 249 250 250 247 246 249 255 260 263 263 264 268 269 268 269 270 272 275 279 281 280 280 279 277 273 269 264 259 256 255 249 243 238 232 232 234 228 219 234 320 336 333 327 319 315 323 332 334 337 337 335 339 343 342 340 339 337 338 338 337 337 339 338 331
165 179 188 196 210 223 233 231 220 216 220 224 224 224 223 220 221 227 238 249 251 250 252 255 251 247 249 253 257 259 259 258 256 254 254 256 259 265 268 269 270 271 271 273 275 276 275 271 264 260 260 254 240 229 223 221 218 213 213 234 248 256 280 292 292 291 296 303 311 320 323 322 327 331 332 333 331 330 330 330 331 331 330 326 317
153 175 184 192 204 210 213 220 221 221 222 224 225 222 215 211 211 215 220 225 227 231 239 244 239 231 232 238 243 245 245 238 227 225 239 247 253 264 269 270 269 267 267 267 268 269 271 272 269 267 265 255 238 227 220 211 204 206 219 225 222 235 266 282 284 278 277 283 295 305 309 311 316 320 323 324 323 323 323 323 324 324 321 319 313
118 140 167 186 198 206 212 217 220 218 214 212 210 203 198 196 192 185 179 177 179 183 184 181 178 186 203 218 226 229 230 230 230 231 222 216 252 292 302 297 285 279 275 270 267 267 266 267 268 267 264 250 232 220 211 204 203 214 226 224 224 235 249 262 270 267 265 271 283 291 297 302 307 311 313 314 315 317 317 317 319 319 317 314 312
22 28 46 182 201 222 230 227 220 216 213 216 216 205 189 176 162 151 144 140 136 131 123 116 110 106 101 132 236 243 252 253 253 244 225 225 268 305 318 311 298 291 286 279 273 270 267 268 268 266 262 248 228 214 206 203 208 219 221 221 228 235 241 255 263 261 262 269 280 289 297 302 305 306 307 309 311 312 312 312 313 314 313 311 311
8 358 353 331 293 256 235 220 213 211 207 202 189 171 161 155 149 144 141 137 133 127 120 110 92 71 47 13 334 292 270 255 248 247 240 240 260 284 304 315 311 302 297 291 282 273 271 275 272 265 259 242 217 204 201 204 211 217 219 220 225 231 242 258 262 262 269 278 289 299 302 304 305 305 307 310 311 309 307 307 310 312 311 311 312
11 10 12 359 309 265 237 221 210 189 176 171 166 160 157 157 157 157 154 146 137 133 129 121 101 66 33 7 343 316 293 273 258 257 252 244 249 265 280 306 320 313 310 311 305 294 282 276 268 257 243 220 201 194 198 207 212 214 215 215 221 236 256 274 277 281 291 296 302 306 305 305 306 308 312 314 312 309 305 304 310 313 310 309 309
337 347 22 51 33 348 228 209 210 201 191 187 184 181 180 178 177 175 168 155 142 136 135 126 104 62 36 20 6 350 327 300 277 270 262 250 246 253 264 281 307 316 314 316 321 324 306 264 248 242 224 205 196 197 202 208 211 213 218 225 243 267 273 278 285 290 297 300 303 303 303 305 307 309 313 314 313 312 306 304 308 308 304 301 298
311 308 298 119 34 339 333 186 197 206 212 215 211 205 200 193 187 181 174 167 158 154 149 135 84 32 21 14 7 359 345 321 297 286 273 255 246 244 249 256 253 226 245 247 216 198 190 171 169 193 195 189 190 197 202 210 222 230 241 252 260 262 265 273 283 292 297 300 302 304 304 306 307 308 308 308 309 308 303 302 305 304 300 297 296
301 290 273 250 255 278 285 277 264 243 227 224 222 220 215 203 192 186 186 197 202 188 181 196 316 355 4 5 3 360 353 338 314 298 277 258 248 236 233 238 221 184 181 180 169 159 155 153 150 158 171 175 181 192 202 217 232 239 251 264 264 264 279 292 298 303 305 305 306 306 306 306 305 305 305 304 304 302 297 295 298 300 300 299 296
305 294 282 268 262 267 269 264 262 263 257 245 235 226 218 210 209 213 218 224 223 213 214 234 254 292 336 351 358 359 355 351 341 322 268 244 237 223 222 228 212 184 175 172 168 160 154 153 151 154 167 174 175 186 201 222 252 267 279 290 293 296 301 305 307 310 310 310 309 309 308 308 308 307 308 307 307 305 298 293 292 294 297 300 299
315 305 294 279 267 262 260 254 248 242 237 231 223 214 210 211 214 217 216 216 219 219 217 222 231 247 283 321 350 355 351 347 344 330 238 214 211 208 216 220 209 194 182 172 167 161 157 157 155 153 161 166 169 227 312 325 318 312 312 311 312 311 310 311 313 315 315 314 314 313 313 314 314 314 314 313 312 309 305 300 295 291 289 291 292
311 308 303 292 276 262 255 247 235 225 222 221 216 209 206 206 205 204 203 201 205 209 211 215 225 236 248 257 284 342 344 335 324 301 226 197 190 195 207 209 203 202 195 181 174 169 164 163 160 157 161 169 301 317 327 330 326 327 331 327 322 318 317 317 317 315 316 316 315 315 315 316 316 316 315 314 312 309 306 302 299 295 291 287 285
304 303 301 297 289 275 260 249 240 235 232 227 219 210 204 201 199 198 195 192 195 202 209 216 224 230 234 235 227 215 231 280 285 270 238 208 196 196 199 196 193 197 193 181 175 171 166 162 161 162 171 25 358 349 349 350 341 338 334 327 322 319 318 317 317 316 316 316 315 315 314 314 314 314 313 311 308 305 302 300 298 296 293 289 286
301 300 298 295 294 293 284 265 249 242 235 225 214 207 202 199 196 193 191 192 196 201 207 215 224 227 227 227 224 213 205 209 223 231 224 208 196 192 189 181 178 181 176 164 160 160 158 155 154 150 134 85 72 61 67 70 36 355 338 327 322 320 320 320 320 319 318 318 316 314 313 313 312 310 308 305 303 300 299 299 298 297 295 293 291
298 298 296 294 292 293 296 289 268 248 235 224 216 211 208 205 200 194 192 195 198 201 205 209 214 220 223 223 220 212 202 198 201 201 199 193 182 174 171 166 162 163 161 153 152 154 152 150 148 141 131 122 112 99 83 60 22 348 334 328 324 325 326 326 326 324 322 320 318 315 313 312 310 307 305 304 302 302 303 304 305 303 302 301 299
291 291 291 291 289 286 285 288 283 259 238 226 219 215 214 212 208 202 198 196 197 197 200 203 208 215 219 218 215 209 200 195 192 188 185 183 177 170 167 162 158 157 155 153 154 155 151 146 142 137 130 118 101 80 60 28 357 343 338 335 334 333 332 330 328 326 324 323 320 316 314 312 310 309 308 308 307 307 309 310 308 305 305 306 303
280 283 283 283 283 281 277 276 279 274 255 237 227 221 217 215 214 212 208 206 202 198 198 203 210 217 218 215 211 205 200 199 197 192 190 187 180 174 169 163 160 160 159 157 156 152 149 145 138 129 119 105 87 59 35 15 2 354 348 342 338 335 332 331 330 329 327 325 321 318 317 317 315 314 313 311 309 308 310 310 306 303 305 304 299
274 275 275 274 273 273 272 269 269 273 270 255 240 231 224 219 218 218 216 213 211 209 209 211 218 223 222 220 213 205 205 208 205 197 195 193 187 181 174 169 166 164 162 164 159 152 147 142 134 124 110 86 62 40 24 14 6 357 348 343 342 340 339 340 340 338 335 332 327 322 320 321 319 317 315 312 308 306 308 309 305 302 303 301 294
274 272 271 270 268 267 269 268 265 266 267 261 248 235 227 220 216 215 214 212 211 212 213 220 230 229 221 217 214 213 219 220 207 195 190 188 185 181 176 172 169 162 160 163 161 153 146 138 127 114 93 66 46 33 23 11 0 353 348 348 350 348 347 347 345 341 337 336 332 325 321 319 316 313 311 309 307 306 307 307 304 299 297 296 293
270 269 268 267 264 263 263 264 262 260 258 256 248 237 231 226 219 217 219 218 215 216 221 227 227 217 207 207 211 214 221 218 202 194 188 182 178 175 171 168 164 160 162 162 156 150 145 135 122 106 84 64 45 30 18 3 356 353 351 351 353 351 348 346 344 340 336 334 331 326 320 315 310 308 307 305 305 306 305 305 303 297 293 293 291
262 262 262 261 261 261 260 258 258 257 253 250 244 238 233 231 228 228 229 226 222 223 227 222 208 196 199 209 211 209 206 201 196 191 184 178 175 172 169 166 159 155 159 160 149 141 137 131 126 119 98 72 47 23 8 0 358 357 353 350 350 350 348 345 342 339 336 334 330 325 319 313 308 307 307 306 306 305 303 302 301 297 293 291 287
257 257 257 256 256 258 257 254 253 254 255 251 243 238 237 237 236 235 234 231 227 223 217 206 195 192 198 202 201 204 203 195 189 186 181 175 173 170 165 161 155 151 155 157 147 139 137 135 136 137 119 75 33 10 5 2 359 356 353 350 348 347 347 346 342 339 337 335 330 324 319 315 311 308 307 307 307 305 302 300 298 295 291 287 285
257 255 253 252 251 252 252 251 247 247 252 255 248 240 237 235 232 226 218 211 208 205 199 193 190 191 191 186 184 195 202 191 183 181 177 173 173 170 161 155 153 153 155 153 146 144 147 147 148 149 132 65 15 4 4 360 354 352 351 349 347 346 347 346 343 340 338 336 331 326 321 317 315 312 310 309 309 306 302 298 295 292 288 286 285
257 253 250 248 247 246 247 247 244 240 242 247 250 247 239 232 228 222 214 206 196 188 184 184 184 184 186 185 184 191 194 186 179 177 176 174 173 168 159 154 155 157 156 153 148 148 152 155 155 154 141 62 28 1 352 349 348 348 347 345 345 346 347 346 343 341 339 336 331 327 323 321 320 319 316 313 309 304 299 295 293 291 288 287 287
254 249 245 242 241 241 242 243 241 238 236 238 246 253 248 238 231 224 218 211 198 185 179 179 177 175 178 183 185 186 185 179 175 175 175 173 171 167 160 157 157 157 157 158 159 156 157 160 154 138 134 119 17 348 341 342 343 342 342 342 343 345 346 344 342 341 339 336 332 328 326 326 326 324 319 313 307 303 300 298 297 295 293 291 289
250 243 238 236 236 236 237 238 237 235 234 236 241 246 247 242 234 223 215 208 199 189 181 176 171 167 165 171 177 179 177 173 171 171 169 168 168 168 163 158 156 156 158 163 166 166 165 161 147 134 155 158 346 337 336 338 339 337 338 340 342 344 345 343 342 341 339 336 334 331 330 330 329 324 317 310 306 305 304 303 302 300 297 295 292
250 240 233 229 230 231 233 233 232 231 230 232 235 238 239 238 231 221 212 206 198 189 180 174 171 167 164 165 170 172 169 165 163 163 164 164 166 167 164 159 156 156 159 163 169 173 168 157 155 168 171 338 339 336 335 336 336 335 337 339 342 344 345 343 342 343 340 336 335 334 332 332 329 324 317 312 308 308 308 306 304 301 298 297 293
251 239 231 227 225 225 226 227 227 226 224 224 225 226 228 226 219 212 205 199 193 185 180 176 173 168 164 163 164 163 160 158 158 161 164 168 170 169 167 165 162 160 162 165 170 172 164 159 170 171 163 336 335 335 335 335 334 335 337 339 341 344 345 343 342 342 340 337 336 335 334 332 329 326 322 318 313 310 308 307 304 302 299 296 293
250 231 226 222 219 218 219 221 221 219 216 214 214 213 214 214 209 203 196 191 185 182 179 177 172 166 164 163 163 162 160 160 163 166 169 171 170 169 168 167 165 163 164 164 163 164 160 161 166 160 343 333 334 337 335 334 334 336 338 340 342 343 343 343 341 341 340 338 337 336 336 335 333 329 326 323 319 315 311 309 308 306 302 299 297
239 210 209 209 208 208 208 211 213 212 209 208 206 204 204 204 200 195 190 184 179 176 173 170 166 163 162 161 162 163 166 167 169 170 170 169 167 167 166 166 162 158 155 150 150 155 157 155 159 167 328 332 336 338 335 335 336 338 339 341 342 342 342 342 342 343 342 341 340 339 339 339 337 332 328 326 324 321 318 316 314 311 307 305 303
92 154 178 188 193 194 194 196 199 200 200 199 197 195 193 190 186 184 179 173 170 167 159 151 152 156 159 160 162 165 168 169 169 169 166 164 164 163 161 158 152 147 145 145 146 152 157 156 162 234 338 342 341 339 338 338 339 340 340 341 342 342 342 342 344 344 344 344 343 343 343 342 339 336 332 330 327 324 322 320 318 316 314 312 311
82 110 136 154 161 162 165 169 171 173 176 178 179 179 176 171 169 168 164 160 160 156 146 141 146 153 158 161 164 167 168 167 165 162 160 160 160 157 153 152 150 148 149 150 152 164 169 166 166 347 351 350 344 343 342 341 340 340 340 341 343 343 343 344 346 346 346 345 346 346 345 344 341 338 335 333 330 327 325 324 322 321 321 320 320
79 88 97 107 116 122 128 133 135 138 144 148 150 152 153 151 150 151 149 148 148 145 141 142 149 154 155 155 160 164 165 164 163 164 164 163 159 154 152 154 156 155 154 153 160 177 179 174 127 358 353 347 344 343 342 341 341 341 341 342 344 346 347 348 349 348 347 347 347 347 347 345 343 340 338 336 334 330 328 328 327 327 326 327 329
78 82 87 91 96 100 106 112 117 119 121 124 125 128 132 135 136 137 137 137 138 138 140 145 149 150 149 150 154 159 162 165 169 170 165 158 154 152 154 158 160 157 154 154 167 178 181 177 358 351 345 342 343 344 343 343 344 344 342 344 348 350 350 351 350 349 349 348 348 348 348 347 346 344 340 338 337 335 332 332 332 331 331 332 334
78 81 84 86 89 93 97 101 104 106 108 110 111 112 117 121 124 125 127 129 131 134 138 142 145 146 148 150 152 153 157 161 161 157 152 150 150 152 156 160 162 161 160 160 169 179 186 269 341 341 341 342 344 345 344 345 348 348 348 350 354 355 354 353 352 350 351 351 351 350 350 350 350 348 345 342 342 341 339 338 337 336 336 337 340
80 82 84 86 89 91 93 97 100 102 103 105 106 105 106 109 112 114 118 123 129 133 136 140 144 147 149 150 150 149 150 149 148 146 146 147 149 152 159 166 170 171 172 172 181 199 228 314 331 335 340 343 346 347 345 347 352 356 356 356 358 359 357 354 352 352 352 353 352 352 352 352 352 352 350 349 348 348 346 345 344 342 342 343 345
82 83 85 87 89 90 92 95 97 99 101 103 104 104 103 104 106 110 115 123 129 134 139 144 147 150 150 148 146 146 145 144 143 143 144 146 149 156 166 175 180 183 188 200 218 233 265 310 323 332 340 345 348 349 346 346 353 0 1 0 1 2 359 356 353 353 354 355 354 354 354 355 356 356 355 355 354 354 352 350 348 348 348 349 350
86 86 87 88 89 90 92 94 95 98 101 103 104 105 107 109 112 117 125 132 136 141 147 149 149 148 147 145 144 144 143 142 141 142 143 147 155 165 175 181 186 193 206 222 238 246 267 297 314 327 338 346 351 352 348 345 351 359 2 2 2 1 360 358 355 354 355 357 357 356 358 359 0 1 1 360 359 360 359 357 355 354 354 354 355
86 87 89 91 93 95 98 100 101 102 105 107 108 108 111 114 118 122 129 135 138 141 144 144 143 143 143 142 142 142 141 140 141 142 145 151 163 175 184 188 193 203 216 230 240 247 263 289 309 323 334 342 348 349 346 345 349 355 359 2 2 0 359 359 358 357 358 360 360 1 3 4 5 6 6 5 4 4 4 4 3 1 360 359 360
85 87 89 92 95 98 101 103 105 106 108 110 112 113 115 117 119 123 127 130 132 133 135 137 138 139 139 139 139 139 139 138 139 141 146 156 169 182 190 193 198 209 222 232 237 245 262 286 306 319 329 337 341 341 340 342 346 349 353 359 2 1 360 0 1 1 2 2 3 5 8 9 10 11 11 10 9 7 6 8 10 9 6 6 6